HYPERVIEW 1G (RS66S)

Last updated on Wed Feb 05 2025 00:03:01 GMT+0000 (Coordinated Universal Time)

1 61772U 24199AP 25035.60338284 .00029345 00000+0 10652-2 0 9995 2 61772 97.3739 265.1854 0014346 281.9162 78.0469 15.28172114 57829
UTC large
Height (km)
Speed (km/s)
/
Latitude / Longitude
Inclination (degrees)
Orbital Period (minutes)
Azimuth
Elevation
Range (km)
Doppler Factor

Next 0 passes for location: London (51.5072 / 0.1276)

Sorry there are no passes over London.